Kodiak, AK

10:15 AM AKDT on May 26, 2017 (GMT -0800)
Kodiak

Weather History for PADQ - October, 2012

Change the Weather History Date:

Wednesday, October 31, 2012

  Actual Average Record
Temperature  
Mean Temperature 29 °F 37 °F  
Max Temperature 32 °F 42 °F 56 °F (1929)
Min Temperature 25 °F 31 °F 7 °F (1917)
Degree Days  
Heating Degree Days 36 28  
Month to date heating degree days 784 760  
Since 1 July heating degree days 2014 1862  
Cooling Degree Days 0 0  
Month to date cooling degree days 0 0  
Year to date cooling degree days 0 1  
Moisture  
Dew Point 16 °F    
Average Humidity 0    
Maximum Humidity 0    
Minimum Humidity 0    
Precipitation  
Precipitation 0.01 in 0.25 in 7.44 in (1991)
Month to date precipitation 4.71 8.26  
Year to date precipitation 47.76 62.40  
Snow  
Snow 0.10 in 0.10 in 2.00 in (1945)
Month to date snowfall 0.4 1.1  
Since 1 July snowfall 0.4 1.1  
Since 1 September snowfall 0.4 1.1  
Snow Depth T in    
Sea Level Pressure  
Sea Level Pressure 29.56 in    
Wind  
Wind Speed 11 mph (WNW)    
Max Wind Speed 21 mph    
Max Gust Speed 26 mph    
Visibility 9 miles    
Events Snow    
T = Trace of Precipitation, MM = Missing Value Source: NWS Daily Summary

Daily Weather History Graph

Daily Weather History Graph

Search for Another Location

Airport or City:

Trip Planner

Search our weather history database for the weather conditions in past years. The results will help you decide how hot, cold, wet, or windy it might be!

Date:

Astronomy

Oct. 31, 2012 Rise Set
Actual Time 9:22 AM AKDT 6:23 PM AKDT
Civil Twilight 8:40 AM AKDT 7:05 PM AKDT
Nautical Twilight 7:54 AM AKDT 7:51 PM AKDT
Astronomical Twilight 7:09 AM AKDT 8:36 PM AKDT
Moon 7:14 PM AKDT (10/31) 11:39 AM AKDT (10/31)
Length of Visible Light 10h 24m
Length of Day
9h 01m
Waning Gibbous, 96% of the Moon is Illuminated
Oct 31
Waning Gibbous
Nov 6
Last Quarter
Nov 13
New
Nov 20
First Quarter
Nov 28
Full

Hourly Weather History & Observations

Time (AKDT) Temp. Windchill Dew Point Humidity Pressure Visibility Wind Dir Wind Speed Gust Speed Precip Events Conditions
12:53 AM 26.1 °F 15.0 °F 12.0 °F 55% 29.64 in 10.0 mi WNW 12.7 mph 20.7 mph N/A   Partly Cloudy
1:53 AM 26.1 °F 13.1 °F 12.0 °F 55% 29.62 in 10.0 mi WNW 17.3 mph - N/A   Partly Cloudy
2:53 AM 26.1 °F 13.6 °F 15.1 °F 63% 29.62 in 10.0 mi West 16.1 mph - N/A   Partly Cloudy
3:53 AM 26.1 °F 13.6 °F 14.0 °F 60% 29.60 in 10.0 mi WNW 16.1 mph 23.0 mph N/A   Clear
4:53 AM 26.1 °F 15.0 °F 12.9 °F 58% 29.58 in 10.0 mi NW 12.7 mph 24.2 mph N/A   Clear
5:53 AM 26.1 °F 15.6 °F 12.9 °F 58% 29.58 in 10.0 mi WNW 11.5 mph 21.9 mph N/A   Clear
6:53 AM 26.1 °F 13.6 °F 12.9 °F 58% 29.57 in 10.0 mi WNW 16.1 mph 24.2 mph N/A   Clear
7:53 AM 27.0 °F 14.7 °F 12.9 °F 56% 29.55 in 10.0 mi WNW 16.1 mph 23.0 mph N/A   Partly Cloudy
8:53 AM 26.1 °F 15.0 °F 12.9 °F 58% 29.55 in 10.0 mi West 12.7 mph - N/A   Partly Cloudy
9:53 AM 26.1 °F 16.2 °F 14.0 °F 60% 29.55 in 10.0 mi West 10.4 mph - N/A   Partly Cloudy
10:53 AM 28.0 °F 18.1 °F 15.1 °F 58% 29.54 in 10.0 mi WNW 11.5 mph - N/A   Partly Cloudy
11:53 AM 30.0 °F 20.0 °F 15.1 °F 54% 29.55 in 10.0 mi WNW 12.7 mph - N/A   Partly Cloudy
12:53 PM 30.9 °F 21.7 °F 15.1 °F 52% 29.55 in 10.0 mi WNW 11.5 mph - N/A   Partly Cloudy
1:53 PM 30.9 °F 22.2 °F 17.1 °F 57% 29.55 in 10.0 mi WNW 10.4 mph - N/A   Partly Cloudy
2:53 PM 30.9 °F 21.2 °F 18.0 °F 59% 29.54 in 9.0 mi West 12.7 mph - 0.00 in   Scattered Clouds
3:53 PM 30.9 °F 23.5 °F 17.1 °F 57% 29.53 in 10.0 mi NW 8.1 mph - N/A   Scattered Clouds
4:53 PM 30.0 °F 23.2 °F 18.0 °F 61% 29.53 in 10.0 mi NW 6.9 mph - 0.00 in   Scattered Clouds
5:53 PM 28.0 °F 19.3 °F 19.0 °F 69% 29.53 in 9.0 mi WNW 9.2 mph - 0.00 in   Scattered Clouds
6:53 PM 27.0 °F 21.6 °F 19.0 °F 72% 29.53 in 10.0 mi NW 4.6 mph - N/A   Scattered Clouds
7:53 PM 28.0 °F 18.6 °F 19.0 °F 69% 29.53 in 10.0 mi WNW 10.4 mph - 0.00 in   Overcast
8:53 PM 28.9 °F 21.1 °F 19.9 °F 69% 29.53 in 8.0 mi WNW 8.1 mph - 0.00 in Snow Light Snow
9:53 PM 28.0 °F 20.0 °F 21.9 °F 78% 29.54 in 5.0 mi WNW 8.1 mph - 0.01 in Snow Light Snow
10:53 PM 28.0 °F 20.0 °F 21.9 °F 78% 29.54 in 4.0 mi WNW 8.1 mph - 0.00 in Snow Light Snow
11:53 PM 28.0 °F 19.3 °F 21.9 °F 78% 29.54 in 7.0 mi WNW 9.2 mph - 0.00 in Snow Light Snow